Cabo Peñas, Asturias

latitud = 43° 39' 20''N | longitud = 005° 50' 57''W
100 metros sobre el nivel del mar | datos mensuales

Fecha, hora, temperatura, viento dirección y velocidad, humedad y presión.

  • 23-04-2018 10:00:00 | 11.40°C | Este |8.00 km/h | 91.00% | 0.00 hPa
  • 23-04-2018 09:00:00 | 11.20°C | Este |9.00 km/h | 91.00% | 0.00 hPa
  • 23-04-2018 08:00:00 | 10.90°C | Este |4.00 km/h | 91.00% | 0.00 hPa
  • 23-04-2018 07:00:00 | 10.90°C | Sudeste |3.00 km/h | 91.00% | 0.00 hPa
  • 23-04-2018 06:00:00 | 10.70°C | Noroeste |4.00 km/h | 91.00% | 0.00 hPa
  • 23-04-2018 05:00:00 | 10.80°C | Calma |0.00 km/h | 91.00% | 0.00 hPa
  • 23-04-2018 04:00:00 | 10.90°C | Calma |0.00 km/h | 91.00% | 0.00 hPa
  • 23-04-2018 03:00:00 | 10.90°C | Norte |4.00 km/h | 91.00% | 0.00 hPa
  • 23-04-2018 02:00:00 | 10.80°C | Noroeste |6.00 km/h | 92.00% | 0.00 hPa
  • 23-04-2018 01:00:00 | 10.80°C | Noroeste |5.00 km/h | 92.00% | 0.00 hPa
  • 23-04-2018 00:00:00 | 10.80°C | Sudeste |2.00 km/h | 92.00% | 0.00 hPa
  • 22-04-2018 23:00:00 | 11.20°C | Calma |0.00 km/h | 92.00% | 0.00 hPa
  • 22-04-2018 22:00:00 | 11.10°C | Noroeste |13.00 km/h | 92.00% | 0.00 hPa
  • 22-04-2018 21:00:00 | 11.10°C | Noroeste |9.00 km/h | 92.00% | 0.00 hPa
  • 22-04-2018 20:00:00 | 11.50°C | Noroeste |10.00 km/h | 92.00% | 0.00 hPa
  • 22-04-2018 19:00:00 | 11.50°C | Noroeste |13.00 km/h | 92.00% | 0.00 hPa
  • 22-04-2018 18:00:00 | 11.80°C | Noroeste |14.00 km/h | 92.00% | 0.00 hPa
  • 22-04-2018 17:00:00 | 12.10°C | Noroeste |11.00 km/h | 92.00% | 0.00 hPa
  • 22-04-2018 16:00:00 | 12.00°C | Noroeste |12.00 km/h | 92.00% | 0.00 hPa
  • 22-04-2018 15:00:00 | 12.00°C | Noroeste |12.00 km/h | 92.00% | 0.00 hPa
  • 22-04-2018 14:00:00 | 12.40°C | Norte |3.00 km/h | 92.00% | 0.00 hPa
  • 22-04-2018 13:00:00 | 13.80°C | Sur |3.00 km/h | 91.00% | 0.00 hPa
  • 22-04-2018 12:00:00 | 13.60°C | Calma |0.00 km/h | 91.00% | 0.00 hPa
  • 22-04-2018 11:00:00 | 13.20°C | Este |5.00 km/h | 91.00% | 0.00 hPa